QPF
0.00 0.00 0.00 0.00 0.00 0.00 0.00 0.00 0.01 0.01 0.01 0.01 0.01 0.01 0.01 0.01 0.01 0.01 0.01 0.01 0.02 0.02 0.02 0.02 0.02 0.02 0.02 0.03 0.04 0.04 0.04 0.04 0.04 0.04 0.05 0.06 0.07 0.07 0.07 0.07 0.08 0.09 0.09 0.11
0.00 0.00 0.00 0.00 0.00 0.00 0.00 0.00 0.00 0.00 0.01 0.01 0.01 0.01 0.01 0.01 0.01 0.01 0.01 0.02 0.02 0.02 0.02 0.02 0.02 0.02 0.02 0.03 0.05 0.05 0.04 0.04 0.03 0.04 0.05 0.05 0.05 0.06 0.06 0.06 0.07 0.07 0.07 0.08
0.00 0.00 0.00 0.00 0.00 0.00 0.00 0.00 0.00 0.00 0.01 0.01 0.01 0.00 0.00 0.00 0.00 0.01 0.01 0.01 0.02 0.02 0.02 0.03 0.03 0.03 0.03 0.04 0.04 0.04 0.04 0.03 0.02 0.02 0.02 0.02 0.02 0.02 0.02 0.03 0.03 0.04 0.04 0.05
0.00 0.00 0.00 0.00 0.00 0.00 0.00 0.00 0.00 0.00 0.00 0.00 0.00 0.00 0.00 0.00 0.00 0.00 0.00 0.00 0.01 0.01 0.01 0.02 0.02 0.02 0.02 0.02 0.03 0.03 0.03 0.02 0.01 0.01 0.01 0.01 0.01 0.01 0.01 0.02 0.02 0.02 0.02 0.03
0.00 0.00 0.00 0.00 0.00 0.00 0.00 0.00 0.00 0.00 0.00 0.00 0.00 0.00 0.00 0.00 0.00 0.00 0.00 0.00 0.00 0.00 0.01 0.01 0.00 0.00 0.00 0.00 0.01 0.01 0.02 0.02 0.02 0.01 0.01 0.01 0.01 0.01 0.02 0.02 0.02 0.01 0.01 0.02
0.00 0.00 0.00 0.00 0.00 0.00 0.00 0.00 0.00 0.00 0.00 0.00 0.00 0.00 0.00 0.00 0.00 0.00 0.00 0.00 0.00 0.00 0.00 0.00 0.00 0.00 0.00 0.00 0.00 0.00 0.00 0.01 0.01 0.01 0.01 0.01 0.01 0.01 0.01 0.02 0.02 0.02 0.02 0.02
0.00 0.00 0.00 0.00 0.00 0.00 0.00 0.00 0.00 0.00 0.00 0.00 0.00 0.00 0.00 0.00 0.00 0.00 0.00 0.00 0.00 0.00 0.00 0.00 0.00 0.00 0.00 0.00 0.00 0.00 0.00 0.00 0.00 0.01 0.01 0.01 0.01 0.01 0.01 0.02 0.02 0.02 0.02 0.02
0.00 0.00 0.00 0.00 0.00 0.00 0.00 0.00 0.00 0.00 0.00 0.00 0.00 0.00 0.00 0.00 0.00 0.00 0.00 0.00 0.00 0.00 0.00 0.00 0.00 0.00 0.00 0.00 0.00 0.00 0.00 0.00 0.00 0.00 0.00 0.00 0.00 0.01 0.01 0.01 0.01 0.02 0.02 0.02
0.00 0.00 0.00 0.00 0.00 0.00 0.00 0.00 0.00 0.00 0.00 0.00 0.00 0.00 0.00 0.00 0.00 0.00 0.00 0.00 0.00 0.00 0.00 0.00 0.00 0.00 0.00 0.00 0.00 0.00 0.00 0.00 0.00 0.00 0.00 0.00 0.00 0.00 0.00 0.00 0.01 0.01 0.01 0.02
0.00 0.00 0.00 0.00 0.00 0.00 0.00 0.00 0.00 0.00 0.00 0.00 0.00 0.00 0.00 0.00 0.00 0.00 0.00 0.00 0.00 0.00 0.00 0.00 0.00 0.00 0.00 0.00 0.00 0.00 0.00 0.00 0.00 0.00 0.00 0.00 0.00 0.00 0.00 0.00 0.00 0.00 0.01 0.01
0.00 0.00 0.00 0.00 0.00 0.00 0.00 0.00 0.00 0.00 0.00 0.00 0.00 0.00 0.00 0.00 0.00 0.00 0.00 0.00 0.00 0.00 0.00 0.00 0.00 0.00 0.00 0.00 0.00 0.00 0.00 0.00 0.00 0.00 0.00 0.00 0.00 0.00 0.00 0.00 0.00 0.01 0.01 0.01
0.00 0.00 0.00 0.00 0.00 0.00 0.00 0.00 0.00 0.00 0.00 0.00 0.00 0.00 0.00 0.00 0.00 0.00 0.00 0.00 0.00 0.00 0.00 0.00 0.00 0.00 0.00 0.00 0.00 0.00 0.00 0.00 0.00 0.00 0.00 0.00 0.00 0.00 0.00 0.00 0.00 0.00 0.01 0.01
0.00 0.00 0.00 0.00 0.00 0.00 0.00 0.00 0.00 0.00 0.00 0.00 0.00 0.00 0.00 0.00 0.00 0.00 0.00 0.00 0.00 0.00 0.00 0.00 0.00 0.00 0.00 0.00 0.00 0.00 0.00 0.00 0.00 0.00 0.00 0.00 0.00 0.00 0.00 0.00 0.00 0.00 0.00 0.00
0.00 0.00 0.00 0.00 0.00 0.00 0.00 0.00 0.00 0.00 0.00 0.00 0.00 0.00 0.00 0.00 0.00 0.00 0.00 0.00 0.00 0.00 0.00 0.00 0.00 0.00 0.00 0.00 0.00 0.00 0.00 0.00 0.00 0.00 0.00 0.00 0.00 0.00 0.00 0.00 0.00 0.00 0.00 0.00
0.00 0.00 0.00 0.00 0.00 0.00 0.00 0.00 0.00 0.00 0.00 0.00 0.00 0.00 0.00 0.00 0.00 0.00 0.00 0.00 0.00 0.00 0.00 0.00 0.00 0.00 0.00 0.00 0.00 0.00 0.00 0.00 0.00 0.00 0.00 0.00 0.00 0.00 0.00 0.00 0.00 0.00 0.00 0.00
0.00 0.00 0.00 0.00 0.00 0.00 0.00 0.00 0.00 0.00 0.00 0.00 0.00 0.00 0.00 0.00 0.00 0.00 0.00 0.00 0.00 0.00 0.00 0.00 0.00 0.00 0.00 0.00 0.00 0.00 0.00 0.00 0.00 0.00 0.00 0.00 0.00 0.00 0.00 0.00 0.00 0.00 0.00 0.00
0.00 0.00 0.00 0.00 0.00 0.00 0.00 0.00 0.00 0.00 0.00 0.00 0.00 0.00 0.00 0.00 0.00 0.00 0.00 0.00 0.00 0.00 0.00 0.00 0.00 0.00 0.00 0.00 0.00 0.00 0.00 0.00 0.00 0.00 0.00 0.00 0.00 0.01 0.01 0.01 0.01 0.01 0.01 0.01
0.00 0.00 0.00 0.00 0.00 0.00 0.00 0.00 0.00 0.00 0.00 0.00 0.00 0.00 0.00 0.00 0.00 0.00 0.00 0.00 0.00 0.00 0.00 0.00 0.00 0.00 0.00 0.00 0.00 0.00 0.00 0.00 0.00 0.00 0.00 0.00 0.01 0.01 0.01 0.01 0.01 0.01 0.01 0.01
0.00 0.00 0.00 0.00 0.00 0.00 0.00 0.00 0.00 0.00 0.00 0.00 0.00 0.00 0.00 0.00 0.00 0.00 0.00 0.00 0.00 0.00 0.00 0.00 0.00 0.00 0.00 0.00 0.00 0.00 0.00 0.00 0.00 0.00 0.00 0.00 0.00 0.00 0.01 0.01 0.01 0.01 0.01 0.01
0.00 0.00 0.00 0.00 0.00 0.00 0.00 0.00 0.00 0.00 0.00 0.00 0.00 0.00 0.00 0.00 0.00 0.00 0.00 0.00 0.00 0.00 0.00 0.00 0.00 0.00 0.00 0.00 0.00 0.00 0.00 0.00 0.00 0.00 0.00 0.00 0.00 0.00 0.01 0.01 0.01 0.01 0.01 0.01
0.00 0.00 0.00 0.00 0.00 0.00 0.00 0.00 0.00 0.00 0.00 0.00 0.00 0.00 0.00 0.00 0.00 0.00 0.00 0.00 0.00 0.00 0.00 0.00 0.00 0.00 0.00 0.00 0.00 0.00 0.00 0.00 0.00 0.00 0.00 0.00 0.00 0.00 0.01 0.01 0.01 0.01 0.01 0.01
0.00 0.00 0.00 0.00 0.00 0.00 0.00 0.00 0.00 0.00 0.00 0.00 0.00 0.00 0.00 0.00 0.00 0.00 0.00 0.00 0.00 0.00 0.00 0.00 0.00 0.00 0.00 0.01 0.00 0.00 0.00 0.00 0.00 0.00 0.00 0.00 0.01 0.01 0.01 0.01 0.01 0.01 0.01 0.02
0.00 0.00 0.00 0.00 0.00 0.00 0.00 0.00 0.00 0.00 0.00 0.00 0.00 0.00 0.00 0.00 0.00 0.00 0.00 0.00 0.00 0.00 0.00 0.00 0.00 0.00 0.00 0.00 0.00 0.00 0.00 0.00 0.00 0.00 0.00 0.01 0.01 0.01 0.01 0.01 0.01 0.01 0.02 0.02
0.00 0.00 0.00 0.00 0.00 0.00 0.00 0.00 0.00 0.00 0.00 0.00 0.00 0.00 0.00 0.00 0.00 0.00 0.00 0.00 0.00 0.00 0.00 0.00 0.00 0.00 0.00 0.00 0.00 0.00 0.00 0.00 0.00 0.00 0.00 0.01 0.01 0.01 0.01 0.01 0.01 0.01 0.02 0.02
0.00 0.00 0.00 0.00 0.00 0.00 0.00 0.00 0.00 0.00 0.00 0.00 0.00 0.00 0.00 0.00 0.00 0.00 0.00 0.00 0.00 0.00 0.00 0.00 0.00 0.00 0.00 0.00 0.00 0.00 0.00 0.00 0.00 0.00 0.01 0.01 0.01 0.01 0.01 0.01 0.01 0.01 0.02 0.02
0.00 0.00 0.00 0.00 0.00 0.00 0.00 0.00 0.00 0.00 0.00 0.00 0.00 0.00 0.00 0.00 0.00 0.00 0.00 0.00 0.00 0.00 0.00 0.00 0.00 0.00 0.00 0.00 0.00 0.00 0.00 0.00 0.00 0.00 0.00 0.00 0.00 0.01 0.01 0.01 0.01 0.01 0.02 0.02
0.00 0.00 0.00 0.00 0.00 0.00 0.00 0.00 0.00 0.00 0.00 0.00 0.00 0.00 0.00 0.00 0.00 0.00 0.00 0.00 0.00 0.00 0.00 0.00 0.00 0.00 0.00 0.00 0.00 0.00 0.00 0.00 0.00 0.00 0.00 0.00 0.00 0.01 0.01 0.01 0.01 0.01 0.02 0.02
MSLP
1018.76 1018.47 1018.15 1017.81 1017.47 1017.13 1016.81 1016.51 1016.26 1016.07 1015.97 1015.98 1016.11 1016.37 1016.74 1017.21 1017.73 1018.27 1018.79 1019.25 1019.61 1019.86 1020.00 1020.05 1020.02 1019.94 1019.82 1019.70 1019.57 1019.42 1019.26 1019.06 1018.80 1018.49 1018.12 1017.70 1017.25 1016.79 1016.34 1015.91 1015.51 1015.13 1014.77 1014.40
1018.28 1017.86 1017.41 1016.97 1016.54 1016.14 1015.78 1015.48 1015.24 1015.09 1015.04 1015.10 1015.28 1015.57 1015.97 1016.45 1016.99 1017.54 1018.08 1018.57 1018.99 1019.32 1019.56 1019.71 1019.80 1019.83 1019.82 1019.78 1019.70 1019.58 1019.42 1019.19 1018.90 1018.54 1018.13 1017.68 1017.20 1016.74 1016.30 1015.89 1015.53 1015.19 1014.87 1014.53
1017.78 1017.24 1016.68 1016.14 1015.63 1015.17 1014.78 1014.47 1014.25 1014.15 1014.15 1014.27 1014.50 1014.85 1015.30 1015.82 1016.39 1016.98 1017.56 1018.10 1018.58 1018.99 1019.32 1019.58 1019.77 1019.90 1019.98 1020.00 1019.95 1019.85 1019.67 1019.41 1019.07 1018.66 1018.20 1017.71 1017.21 1016.73 1016.29 1015.89 1015.53 1015.20 1014.89 1014.57
1017.27 1016.64 1016.00 1015.38 1014.81 1014.31 1013.90 1013.59 1013.40 1013.33 1013.39 1013.57 1013.88 1014.29 1014.79 1015.37 1015.99 1016.63 1017.26 1017.86 1018.40 1018.89 1019.30 1019.64 1019.92 1020.12 1020.25 1020.31 1020.28 1020.17 1019.97 1019.67 1019.29 1018.84 1018.33 1017.80 1017.28 1016.78 1016.32 1015.91 1015.54 1015.21 1014.88 1014.54
1016.76 1016.08 1015.40 1014.74 1014.14 1013.63 1013.22 1012.93 1012.76 1012.73 1012.84 1013.08 1013.45 1013.93 1014.50 1015.13 1015.80 1016.50 1017.18 1017.83 1018.42 1018.96 1019.44 1019.83 1020.16 1020.40 1020.56 1020.63 1020.61 1020.48 1020.25 1019.92 1019.50 1019.01 1018.47 1017.92 1017.37 1016.86 1016.39 1015.96 1015.58 1015.22 1014.86 1014.49
1016.24 1015.56 1014.88 1014.23 1013.65 1013.16 1012.77 1012.51 1012.38 1012.39 1012.54 1012.83 1013.25 1013.78 1014.40 1015.08 1015.80 1016.53 1017.25 1017.94 1018.57 1019.14 1019.64 1020.06 1020.41 1020.66 1020.82 1020.88 1020.84 1020.69 1020.43 1020.07 1019.62 1019.11 1018.56 1018.00 1017.45 1016.93 1016.46 1016.02 1015.62 1015.24 1014.85 1014.45
1015.72 1015.08 1014.44 1013.85 1013.32 1012.88 1012.55 1012.33 1012.24 1012.29 1012.48 1012.80 1013.25 1013.82 1014.47 1015.18 1015.93 1016.68 1017.42 1018.12 1018.77 1019.34 1019.84 1020.26 1020.59 1020.82 1020.96 1021.00 1020.92 1020.74 1020.46 1020.08 1019.62 1019.11 1018.57 1018.01 1017.48 1016.97 1016.50 1016.07 1015.66 1015.26 1014.85 1014.41
1015.20 1014.62 1014.07 1013.57 1013.13 1012.77 1012.50 1012.34 1012.29 1012.38 1012.59 1012.93 1013.40 1013.98 1014.64 1015.37 1016.12 1016.88 1017.62 1018.32 1018.95 1019.51 1019.98 1020.37 1020.66 1020.86 1020.96 1020.95 1020.85 1020.64 1020.34 1019.96 1019.51 1019.01 1018.48 1017.95 1017.44 1016.96 1016.50 1016.08 1015.67 1015.26 1014.82 1014.36
1014.66 1014.17 1013.72 1013.33 1013.01 1012.75 1012.57 1012.47 1012.47 1012.59 1012.81 1013.16 1013.63 1014.21 1014.86 1015.58 1016.33 1017.08 1017.80 1018.47 1019.08 1019.60 1020.03 1020.37 1020.62 1020.77 1020.83 1020.79 1020.65 1020.43 1020.12 1019.74 1019.31 1018.83 1018.33 1017.83 1017.35 1016.89 1016.45 1016.04 1015.62 1015.20 1014.76 1014.27
1014.09 1013.70 1013.37 1013.11 1012.91 1012.76 1012.67 1012.64 1012.69 1012.82 1013.06 1013.41 1013.87 1014.43 1015.07 1015.76 1016.49 1017.22 1017.92 1018.56 1019.13 1019.61 1020.00 1020.30 1020.49 1020.60 1020.62 1020.55 1020.39 1020.16 1019.86 1019.49 1019.08 1018.63 1018.16 1017.69 1017.23 1016.78 1016.35 1015.93 1015.51 1015.07 1014.61 1014.10
1013.48 1013.20 1013.00 1012.87 1012.79 1012.75 1012.74 1012.78 1012.87 1013.03 1013.27 1013.61 1014.05 1014.59 1015.21 1015.88 1016.59 1017.29 1017.97 1018.58 1019.12 1019.56 1019.91 1020.16 1020.32 1020.40 1020.39 1020.30 1020.14 1019.91 1019.62 1019.28 1018.89 1018.46 1018.02 1017.56 1017.10 1016.65 1016.21 1015.77 1015.32 1014.85 1014.36 1013.83
1012.85 1012.67 1012.59 1012.59 1012.62 1012.68 1012.76 1012.85 1012.98 1013.15 1013.40 1013.73 1014.15 1014.67 1015.27 1015.93 1016.62 1017.30 1017.95 1018.54 1019.05 1019.46 1019.78 1020.01 1020.14 1020.19 1020.17 1020.08 1019.93 1019.71 1019.45 1019.13 1018.76 1018.35 1017.92 1017.46 1016.99 1016.51 1016.03 1015.54 1015.05 1014.54 1014.01 1013.45
1012.19 1012.13 1012.17 1012.28 1012.42 1012.57 1012.71 1012.85 1013.01 1013.20 1013.44 1013.77 1014.18 1014.69 1015.28 1015.92 1016.59 1017.26 1017.89 1018.46 1018.95 1019.34 1019.64 1019.84 1019.96 1020.00 1019.98 1019.90 1019.76 1019.57 1019.33 1019.03 1018.68 1018.29 1017.85 1017.37 1016.87 1016.35 1015.81 1015.27 1014.71 1014.15 1013.57 1012.98
1011.56 1011.61 1011.76 1011.97 1012.21 1012.43 1012.63 1012.81 1012.98 1013.19 1013.44 1013.76 1014.17 1014.67 1015.24 1015.88 1016.54 1017.19 1017.81 1018.36 1018.83 1019.20 1019.48 1019.67 1019.78 1019.82 1019.80 1019.73 1019.61 1019.44 1019.23 1018.95 1018.62 1018.23 1017.78 1017.28 1016.74 1016.16 1015.56 1014.96 1014.34 1013.72 1013.09 1012.48
1011.00 1011.16 1011.41 1011.72 1012.02 1012.30 1012.54 1012.75 1012.94 1013.15 1013.41 1013.73 1014.14 1014.64 1015.21 1015.84 1016.49 1017.13 1017.73 1018.26 1018.70 1019.05 1019.31 1019.48 1019.58 1019.61 1019.60 1019.54 1019.44 1019.29 1019.09 1018.84 1018.52 1018.13 1017.67 1017.14 1016.57 1015.95 1015.30 1014.63 1013.96 1013.29 1012.64 1012.00
1010.57 1010.83 1011.18 1011.55 1011.91 1012.22 1012.49 1012.71 1012.92 1013.14 1013.40 1013.73 1014.14 1014.64 1015.21 1015.83 1016.47 1017.09 1017.67 1018.17 1018.58 1018.90 1019.12 1019.27 1019.34 1019.36 1019.34 1019.29 1019.20 1019.07 1018.88 1018.64 1018.34 1017.95 1017.49 1016.95 1016.36 1015.71 1015.03 1014.33 1013.63 1012.94 1012.27 1011.62
1010.31 1010.66 1011.07 1011.50 1011.89 1012.22 1012.49 1012.72 1012.93 1013.16 1013.42 1013.76 1014.18 1014.68 1015.25 1015.86 1016.49 1017.08 1017.63 1018.09 1018.46 1018.73 1018.92 1019.02 1019.07 1019.06 1019.03 1018.97 1018.88 1018.75 1018.58 1018.36 1018.07 1017.69 1017.24 1016.71 1016.12 1015.47 1014.78 1014.08 1013.38 1012.69 1012.02 1011.39
1010.25 1010.67 1011.13 1011.57 1011.96 1012.29 1012.55 1012.77 1012.98 1013.20 1013.48 1013.82 1014.25 1014.76 1015.32 1015.92 1016.53 1017.10 1017.60 1018.02 1018.34 1018.56 1018.69 1018.75 1018.76 1018.72 1018.67 1018.59 1018.49 1018.37 1018.21 1018.00 1017.73 1017.38 1016.95 1016.45 1015.88 1015.25 1014.59 1013.92 1013.24 1012.57 1011.93 1011.31
1010.40 1010.85 1011.31 1011.74 1012.11 1012.40 1012.64 1012.84 1013.04 1013.26 1013.53 1013.88 1014.32 1014.83 1015.39 1015.98 1016.56 1017.10 1017.56 1017.93 1018.20 1018.37 1018.46 1018.47 1018.43 1018.37 1018.28 1018.19 1018.09 1017.97 1017.82 1017.62 1017.37 1017.05 1016.66 1016.19 1015.67 1015.09 1014.48 1013.85 1013.21 1012.59 1011.97 1011.38
1010.71 1011.16 1011.58 1011.97 1012.28 1012.53 1012.72 1012.89 1013.07 1013.28 1013.55 1013.91 1014.35 1014.87 1015.42 1016.00 1016.56 1017.06 1017.48 1017.81 1018.04 1018.16 1018.20 1018.18 1018.11 1018.02 1017.92 1017.81 1017.71 1017.59 1017.45 1017.27 1017.05 1016.76 1016.41 1016.00 1015.52 1015.00 1014.44 1013.87 1013.28 1012.69 1012.10 1011.52
1011.10 1011.50 1011.87 1012.18 1012.42 1012.60 1012.75 1012.88 1013.03 1013.23 1013.51 1013.87 1014.32 1014.83 1015.38 1015.94 1016.47 1016.95 1017.34 1017.64 1017.82 1017.92 1017.93 1017.89 1017.80 1017.70 1017.60 1017.49 1017.39 1017.28 1017.16 1017.00 1016.80 1016.55 1016.24 1015.87 1015.44 1014.97 1014.47 1013.93 1013.39 1012.82 1012.25 1011.65
1011.45 1011.79 1012.08 1012.31 1012.47 1012.59 1012.67 1012.77 1012.90 1013.09 1013.37 1013.74 1014.19 1014.70 1015.24 1015.79 1016.30 1016.75 1017.12 1017.38 1017.55 1017.63 1017.64 1017.59 1017.52 1017.42 1017.33 1017.24 1017.16 1017.06 1016.96 1016.82 1016.64 1016.42 1016.14 1015.80 1015.41 1014.98 1014.51 1014.00 1013.48 1012.92 1012.34 1011.72
1011.67 1011.93 1012.14 1012.29 1012.38 1012.43 1012.48 1012.54 1012.66 1012.86 1013.14 1013.51 1013.97 1014.47 1015.01 1015.54 1016.03 1016.46 1016.80 1017.06 1017.22 1017.30 1017.32 1017.29 1017.24 1017.18 1017.11 1017.05 1016.99 1016.92 1016.83 1016.72 1016.55 1016.34 1016.08 1015.76 1015.39 1014.97 1014.52 1014.02 1013.50 1012.93 1012.33 1011.67
1011.64 1011.84 1011.98 1012.06 1012.09 1012.11 1012.13 1012.20 1012.32 1012.53 1012.83 1013.21 1013.67 1014.17 1014.70 1015.21 1015.68 1016.09 1016.42 1016.67 1016.84 1016.93 1016.97 1016.98 1016.96 1016.94 1016.92 1016.89 1016.86 1016.82 1016.75 1016.64 1016.49 1016.28 1016.02 1015.69 1015.32 1014.90 1014.44 1013.94 1013.40 1012.82 1012.19 1011.49
1011.30 1011.45 1011.55 1011.59 1011.60 1011.61 1011.65 1011.73 1011.89 1012.13 1012.45 1012.86 1013.32 1013.83 1014.34 1014.83 1015.28 1015.68 1016.00 1016.24 1016.41 1016.53 1016.61 1016.65 1016.68 1016.70 1016.72 1016.74 1016.74 1016.72 1016.66 1016.56 1016.40 1016.18 1015.90 1015.56 1015.17 1014.74 1014.26 1013.74 1013.18 1012.58 1011.92 1011.20
1010.62 1010.75 1010.83 1010.88 1010.91 1010.94 1011.02 1011.16 1011.37 1011.66 1012.02 1012.46 1012.94 1013.45 1013.95 1014.43 1014.87 1015.24 1015.55 1015.80 1015.98 1016.12 1016.23 1016.31 1016.39 1016.45 1016.51 1016.56 1016.59 1016.58 1016.52 1016.41 1016.24 1016.00 1015.69 1015.33 1014.91 1014.44 1013.94 1013.40 1012.83 1012.22 1011.56 1010.84
1009.63 1009.76 1009.86 1009.93 1010.01 1010.11 1010.27 1010.48 1010.77 1011.13 1011.55 1012.03 1012.53 1013.05 1013.55 1014.02 1014.44 1014.80 1015.11 1015.36 1015.56 1015.72 1015.86 1015.98 1016.09 1016.19 1016.28 1016.35 1016.39 1016.38 1016.32 1016.19 1015.98 1015.71 1015.37 1014.97 1014.52 1014.03 1013.51 1012.96 1012.38 1011.78 1011.14 1010.45
Thickness
5527 5530 5528 5529 5530 5529 5525 5532 5536 5542 5537 5537 5533 5526 5522 5517 5512 5507 5503 5497 5492 5489 5486 5483 5480 5479 5479 5478 5478 5479 5479 5480 5481 5482 5483 5484 5486 5488 5490 5492 5494 5497 5499 5501
5527 5530 5528 5528 5534 5533 5531 5532 5534 5535 5536 5539 5532 5525 5520 5516 5511 5506 5503 5498 5492 5487 5483 5480 5477 5475 5474 5473 5472 5472 5473 5473 5473 5474 5474 5475 5476 5477 5478 5480 5482 5483 5485 5487
5535 5531 5532 5543 5547 5541 5538 5538 5538 5539 5543 5537 5529 5524 5520 5516 5511 5507 5502 5497 5491 5486 5481 5477 5473 5471 5469 5467 5466 5465 5465 5465 5465 5465 5466 5466 5466 5467 5467 5468 5469 5470 5470 5471
5529 5534 5536 5557 5543 5542 5541 5542 5540 5540 5540 5535 5530 5524 5518 5513 5509 5505 5499 5494 5488 5482 5477 5473 5468 5465 5463 5461 5459 5458 5457 5456 5456 5456 5456 5456 5456 5456 5456 5456 5455 5455 5456 5456
5527 5536 5548 5554 5543 5538 5539 5545 5544 5540 5538 5531 5522 5518 5519 5510 5505 5501 5496 5490 5484 5478 5472 5468 5463 5459 5457 5455 5453 5451 5449 5448 5447 5446 5445 5445 5445 5444 5443 5442 5442 5441 5440 5440
5527 5531 5547 5560 5543 5535 5536 5546 5545 5538 5535 5528 5518 5527 5528 5510 5500 5495 5489 5483 5477 5471 5466 5462 5458 5453 5450 5448 5446 5444 5441 5439 5437 5435 5434 5433 5432 5431 5429 5428 5427 5426 5424 5423
5526 5531 5552 5552 5536 5531 5539 5554 5540 5535 5531 5524 5521 5525 5515 5503 5495 5488 5482 5476 5470 5465 5460 5456 5451 5446 5444 5441 5438 5434 5431 5429 5427 5425 5424 5422 5420 5418 5416 5414 5412 5411 5410 5408
5527 5528 5546 5543 5532 5540 5550 5540 5533 5530 5526 5520 5516 5508 5501 5496 5489 5482 5476 5470 5464 5459 5454 5448 5443 5439 5436 5433 5429 5425 5422 5419 5417 5415 5413 5410 5408 5406 5403 5400 5398 5396 5394 5392
5541 5551 5551 5541 5544 5541 5535 5533 5529 5525 5519 5513 5507 5502 5496 5489 5483 5477 5470 5464 5457 5452 5447 5441 5435 5431 5428 5424 5419 5415 5412 5410 5407 5404 5401 5397 5394 5391 5388 5384 5381 5379 5376 5375
5531 5546 5544 5538 5535 5531 5527 5525 5523 5517 5512 5506 5502 5497 5490 5483 5477 5470 5463 5457 5450 5444 5439 5434 5427 5422 5418 5413 5408 5405 5402 5399 5396 5392 5388 5384 5379 5376 5372 5369 5365 5362 5360 5358
5532 5544 5540 5540 5533 5530 5524 5518 5513 5509 5505 5501 5496 5491 5484 5478 5471 5464 5456 5449 5442 5437 5431 5426 5419 5413 5408 5403 5398 5395 5392 5388 5384 5380 5376 5372 5367 5362 5357 5353 5347 5344 5342 5340
5548 5551 5543 5544 5534 5526 5519 5514 5509 5504 5499 5494 5488 5484 5477 5470 5463 5456 5449 5441 5435 5429 5423 5416 5410 5404 5399 5393 5388 5384 5381 5377 5372 5368 5364 5359 5356 5352 5346 5339 5335 5330 5327 5325
5545 5537 5533 5530 5524 5518 5514 5509 5503 5498 5494 5488 5481 5475 5468 5462 5454 5446 5439 5433 5427 5421 5414 5408 5402 5396 5389 5383 5378 5373 5369 5365 5361 5356 5352 5347 5343 5339 5337 5332 5326 5321 5318 5314
5528 5522 5521 5520 5517 5511 5506 5500 5494 5489 5484 5479 5472 5465 5458 5452 5445 5438 5432 5425 5418 5412 5405 5399 5393 5387 5380 5373 5368 5363 5358 5353 5348 5345 5340 5336 5331 5326 5322 5319 5317 5315 5309 5305
5520 5516 5517 5513 5506 5501 5495 5490 5485 5481 5475 5469 5463 5456 5450 5443 5437 5431 5423 5415 5408 5402 5396 5389 5383 5377 5370 5363 5358 5353 5348 5343 5338 5334 5329 5325 5320 5315 5310 5307 5304 5302 5300 5297
5514 5508 5504 5500 5498 5493 5488 5483 5480 5477 5470 5462 5455 5449 5442 5435 5428 5420 5412 5405 5399 5394 5387 5380 5374 5367 5360 5354 5348 5343 5339 5332 5327 5323 5319 5314 5309 5305 5301 5297 5293 5290 5287 5285
5505 5502 5496 5493 5491 5488 5483 5480 5475 5470 5463 5455 5449 5441 5432 5424 5417 5410 5403 5396 5389 5383 5377 5371 5365 5358 5351 5345 5339 5334 5329 5324 5318 5314 5309 5304 5299 5295 5290 5286 5282 5278 5275 5272
5504 5502 5497 5492 5488 5482 5477 5472 5466 5461 5455 5448 5439 5431 5423 5417 5412 5404 5395 5387 5380 5374 5368 5362 5355 5349 5343 5336 5330 5325 5320 5315 5310 5305 5300 5295 5290 5285 5280 5275 5271 5268 5265 5262
5492 5489 5486 5481 5478 5473 5469 5464 5458 5452 5445 5437 5430 5423 5416 5409 5402 5395 5386 5378 5373 5368 5361 5354 5347 5341 5335 5329 5322 5317 5311 5306 5301 5296 5291 5286 5281 5276 5271 5267 5263 5259 5256 5254
5482 5479 5475 5471 5467 5463 5459 5455 5448 5442 5435 5428 5420 5413 5405 5399 5391 5384 5377 5372 5367 5362 5353 5346 5340 5334 5327 5321 5315 5309 5303 5298 5293 5288 5282 5277 5272 5267 5263 5259 5255 5251 5249 5246
5472 5469 5465 5462 5457 5453 5449 5444 5438 5432 5425 5418 5412 5406 5399 5391 5383 5376 5370 5366 5360 5352 5345 5338 5332 5326 5320 5314 5308 5302 5296 5290 5284 5279 5274 5269 5264 5259 5255 5252 5248 5245 5242 5240
5462 5459 5456 5452 5448 5444 5439 5434 5429 5423 5416 5409 5403 5397 5389 5382 5375 5369 5364 5359 5353 5345 5338 5332 5326 5319 5314 5308 5301 5294 5288 5282 5276 5271 5266 5261 5256 5252 5249 5245 5241 5238 5236 5235
5452 5449 5446 5443 5439 5435 5429 5424 5419 5414 5408 5402 5396 5390 5384 5378 5371 5364 5360 5352 5345 5338 5332 5326 5319 5313 5307 5301 5294 5287 5281 5275 5269 5264 5259 5254 5249 5245 5242 5238 5236 5233 5232 5231
5442 5440 5436 5432 5427 5422 5419 5416 5409 5404 5399 5394 5388 5382 5376 5370 5364 5358 5352 5345 5338 5331 5325 5319 5312 5306 5300 5293 5286 5280 5274 5268 5262 5257 5252 5248 5244 5240 5236 5233 5231 5229 5228 5227
5432 5429 5425 5420 5418 5417 5414 5407 5399 5394 5389 5385 5380 5374 5369 5364 5359 5353 5344 5337 5330 5324 5318 5312 5305 5299 5292 5285 5279 5273 5267 5261 5256 5251 5247 5242 5238 5235 5232 5229 5227 5226 5225 5225
5424 5422 5420 5417 5414 5411 5405 5399 5395 5390 5384 5379 5374 5368 5362 5356 5350 5344 5336 5330 5323 5317 5311 5304 5297 5291 5285 5278 5272 5266 5261 5255 5250 5245 5241 5237 5234 5231 5229 5226 5224 5223 5223 5223
5416 5413 5410 5408 5405 5401 5397 5393 5390 5386 5380 5375 5370 5363 5356 5350 5343 5337 5330 5323 5316 5310 5303 5297 5290 5284 5278 5272 5266 5260 5255 5250 5245 5240 5237 5233 5230 5228 5226 5224 5223 5222 5222 5223